Hinckley, MN

8:35 PM CST on December 15, 2019 (GMT -0600)
Hinckley

Weather History for K04W - October, 2019

Change the Weather History Date:

Sunday, October 6, 2019

  Actual Average (WUND) Record (WUND)
Temperature  
Mean Temperature 50 °F -  
Max Temperature 59 °F - - (-1)
Min Temperature 42 °F - - (-1)
Degree Days  
Heating Degree Days 14    
Moisture  
Dew Point 43 °F    
Average Humidity 78    
Maximum Humidity 100    
Minimum Humidity 55    
Precipitation  
Precipitation 0.00 in - - ()
Sea Level Pressure  
Sea Level Pressure 29.87 in    
Wind  
Wind Speed 7 mph (WSW)    
Max Wind Speed 22 mph    
Max Gust Speed 32 mph    
Visibility 10 miles    
Events      
Averages and records for this station are not official NWS values.
T = Trace of Precipitation, MM = Missing Value Source: NWS Daily Summary

Daily Weather History Graph

Daily Weather History Graph

Search for Another Location

Airport or City:

Astronomy

Oct. 06, 2019 Rise Set
Actual Time 7:16 AM CDT 6:42 PM CDT
Civil Twilight 6:46 AM CDT 7:12 PM CDT
Nautical Twilight 6:11 AM CDT 7:46 PM CDT
Astronomical Twilight 5:36 AM CDT 8:21 PM CDT
Moon 3:45 PM CDT (10/6) No Moon Set
Length of Visible Light 12h 25m
Length of Day
11h 26m
First Quarter, 60% of the Moon is Illuminated
Oct 6
First Quarter
Oct 13
Full
Oct 21
Last Quarter
Oct 27
New
Nov 4
First Quarter

Hourly Weather History & Observations

Time (CDT) Temp. Windchill Dew Point Humidity Pressure Visibility Wind Dir Wind Speed Gust Speed Precip Events Conditions
12:15 AM 48.2 °F - 44.6 °F 87% 29.75 in 10.0 mi SW 13.8 mph 19.6 mph N/A   Overcast
12:19 AM 48.2 °F - 44.6 °F 87% 29.75 in 10.0 mi SW 11.5 mph 19.6 mph N/A   Overcast
12:38 AM 48.2 °F - 44.6 °F 87% 29.76 in 10.0 mi SW 8.1 mph - N/A   Overcast
12:55 AM 46.4 °F 41.1 °F 44.6 °F 93% 29.75 in 10.0 mi SW 11.5 mph - N/A   Overcast
1:15 AM 46.4 °F 43.5 °F 44.6 °F 93% 29.76 in 10.0 mi SW 5.8 mph - N/A   Overcast
1:16 AM 46.4 °F - 44.6 °F 93% 29.76 in 10.0 mi Calm Calm - N/A   Overcast
1:35 AM 46.4 °F 42.9 °F 44.6 °F 93% 29.76 in 10.0 mi SW 6.9 mph - N/A   Mostly Cloudy
1:40 AM 46.4 °F - 44.6 °F 93% 29.76 in 10.0 mi Calm Calm - N/A   Mostly Cloudy
1:57 AM 44.6 °F - 44.6 °F 100% 29.77 in 10.0 mi Calm Calm - N/A   Scattered Clouds
2:16 AM 44.6 °F - 44.6 °F 100% 29.78 in 10.0 mi Calm Calm - N/A   Clear
2:35 AM 44.6 °F - 44.6 °F 100% 29.77 in 10.0 mi Calm Calm - N/A   Clear
2:36 AM 44.6 °F - 44.6 °F 100% 29.77 in 10.0 mi Calm Calm - N/A   Clear
2:55 AM 44.6 °F - 44.6 °F 100% 29.78 in 10.0 mi Calm Calm - N/A   Clear
2:56 AM 44.6 °F - 44.6 °F 100% 29.78 in 10.0 mi Calm Calm - N/A   Clear
3:18 AM 44.6 °F - 44.6 °F 100% 29.78 in 10.0 mi Calm Calm - N/A   Clear
3:36 AM 44.6 °F - 44.6 °F 100% 29.78 in 10.0 mi Calm Calm - N/A   Clear
3:56 AM 44.6 °F - 44.6 °F 100% 29.79 in 10.0 mi Calm Calm - N/A   Clear
4:15 AM 44.6 °F - 44.6 °F 100% 29.79 in 10.0 mi Calm Calm - N/A   Clear
4:16 AM 44.6 °F - 44.6 °F 100% 29.79 in 10.0 mi Calm Calm - N/A   Clear
4:35 AM 44.6 °F - 44.6 °F 100% 29.79 in 10.0 mi Calm Calm - N/A   Clear
4:40 AM 44.6 °F - 44.6 °F 100% 29.79 in 10.0 mi Calm Calm - N/A   Clear
4:57 AM 46.4 °F - 42.8 °F 87% 29.79 in 10.0 mi Calm Calm - N/A   Clear
5:16 AM 44.6 °F - 42.8 °F 93% 29.80 in 10.0 mi Calm Calm - N/A   Scattered Clouds
5:35 AM 44.6 °F 39.2 °F 42.8 °F 93% 29.80 in 10.0 mi SW 10.4 mph - N/A   Scattered Clouds
5:36 AM 44.6 °F 39.2 °F 42.8 °F 93% 29.80 in 10.0 mi SW 10.4 mph - N/A   Scattered Clouds
5:55 AM 44.6 °F 39.7 °F 42.8 °F 93% 29.81 in 10.0 mi WSW 9.2 mph - N/A   Clear
5:56 AM 44.6 °F 40.7 °F 42.8 °F 93% 29.81 in 10.0 mi WSW 6.9 mph - N/A   Clear
6:18 AM 44.6 °F - 42.8 °F 93% 29.81 in 10.0 mi Calm Calm - N/A   Clear
6:37 AM 44.6 °F - 41.0 °F 87% 29.82 in 10.0 mi Calm Calm - N/A   Clear
6:56 AM 44.6 °F 42.2 °F 41.0 °F 87% 29.82 in 10.0 mi WSW 4.6 mph - N/A   Clear
7:15 AM 44.6 °F - 41.0 °F 87% 29.82 in 10.0 mi Calm Calm - N/A   Clear
7:16 AM 44.6 °F - 41.0 °F 87% 29.82 in 10.0 mi Calm Calm - N/A   Clear
7:35 AM 44.6 °F - 41.0 °F 87% 29.82 in 10.0 mi Calm Calm - N/A   Scattered Clouds
7:40 AM 44.6 °F - 41.0 °F 87% 29.82 in 10.0 mi Calm Calm - N/A   Mostly Cloudy
7:58 AM 44.6 °F - 41.0 °F 87% 29.83 in 10.0 mi Calm Calm - N/A   Mostly Cloudy
8:16 AM 46.4 °F - 42.8 °F 87% 29.84 in 10.0 mi Calm Calm - N/A   Overcast
8:35 AM 46.4 °F 45.2 °F 42.8 °F 87% 29.84 in 10.0 mi WSW 3.5 mph 10.4 mph N/A   Overcast
8:36 AM 46.4 °F - 42.8 °F 87% 29.84 in 10.0 mi Calm Calm - N/A   Overcast
8:55 AM 46.4 °F - 42.8 °F 87% 29.84 in 10.0 mi Calm Calm - N/A   Overcast
9:19 AM 48.2 °F - 42.8 °F 82% 29.85 in 10.0 mi WSW 13.8 mph 19.6 mph N/A   Scattered Clouds
9:36 AM 50.0 °F - 42.8 °F 76% 29.85 in 10.0 mi SW 13.8 mph - N/A   Clear
9:55 AM 50.0 °F - 42.8 °F 76% 29.85 in 10.0 mi SW 11.5 mph - N/A   Scattered Clouds
9:56 AM 50.0 °F - 42.8 °F 76% 29.85 in 10.0 mi SW 10.4 mph - N/A   Scattered Clouds
10:15 AM 50.0 °F - 42.8 °F 76% 29.86 in 10.0 mi Calm Calm - N/A   Clear
10:16 AM 50.0 °F - 42.8 °F 76% 29.86 in 10.0 mi SW 8.1 mph - N/A   Clear
10:35 AM 51.8 °F - 42.8 °F 71% 29.86 in 10.0 mi WSW 15.0 mph 18.4 mph N/A   Clear
10:39 AM 51.8 °F - 42.8 °F 71% 29.86 in 10.0 mi WSW 11.5 mph 18.4 mph N/A   Clear
10:58 AM 53.6 °F - 42.8 °F 67% 29.87 in 10.0 mi WSW 18.4 mph 24.2 mph N/A   Clear
11:16 AM 53.6 °F - 42.8 °F 67% 29.87 in 10.0 mi WSW 17.3 mph 25.3 mph N/A   Clear
11:35 AM 55.4 °F - 42.8 °F 63% 29.88 in 10.0 mi WSW 17.3 mph 21.9 mph N/A   Clear
11:36 AM 55.4 °F - 42.8 °F 63% 29.88 in 10.0 mi WSW 16.1 mph 21.9 mph N/A   Clear
11:55 AM 57.2 °F - 44.6 °F 63% 29.88 in 10.0 mi WSW 15.0 mph 20.7 mph N/A   Clear
11:56 AM 57.2 °F - 44.6 °F 63% 29.88 in 10.0 mi WSW 18.4 mph 24.2 mph N/A   Clear
12:19 PM 57.2 °F - 42.8 °F 59% 29.88 in 10.0 mi WSW 13.8 mph 24.2 mph N/A   Scattered Clouds
12:36 PM 57.2 °F - 42.8 °F 59% 29.89 in 10.0 mi WSW 16.1 mph 25.3 mph N/A   Overcast
12:55 PM 55.4 °F - 42.8 °F 63% 29.89 in 10.0 mi WSW 15.0 mph 19.6 mph N/A   Overcast
12:56 PM 57.2 °F - 42.8 °F 59% 29.89 in 10.0 mi WSW 16.1 mph 19.6 mph N/A   Overcast
1:15 PM 59.0 °F - 42.8 °F 55% 29.89 in 10.0 mi WSW 19.6 mph 26.5 mph N/A   Mostly Cloudy
1:16 PM 59.0 °F - 42.8 °F 55% 29.89 in 10.0 mi WSW 18.4 mph 26.5 mph N/A   Mostly Cloudy
1:35 PM 57.2 °F - 42.8 °F 59% 29.89 in 10.0 mi West 17.3 mph 32.2 mph N/A   Scattered Clouds
1:39 PM 59.0 °F - 42.8 °F 55% 29.89 in 10.0 mi WSW 21.9 mph 32.2 mph N/A   Clear
1:57 PM 59.0 °F - 42.8 °F 55% 29.89 in 10.0 mi WSW 21.9 mph 26.5 mph N/A   Mostly Cloudy
2:15 PM 59.0 °F - 42.8 °F 55% 29.89 in 10.0 mi WSW 20.7 mph 28.8 mph N/A   Overcast
2:35 PM 59.0 °F - 44.6 °F 59% 29.89 in 10.0 mi WSW 16.1 mph 27.6 mph N/A   Overcast
2:36 PM 59.0 °F - 44.6 °F 59% 29.89 in 10.0 mi WSW 18.4 mph 27.6 mph N/A   Overcast
2:55 PM 59.0 °F - 42.8 °F 55% 29.89 in 10.0 mi WSW 17.3 mph 28.8 mph N/A   Mostly Cloudy
3:18 PM 57.2 °F - 42.8 °F 59% 29.89 in 10.0 mi WSW 17.3 mph 25.3 mph N/A   Overcast
3:36 PM 57.2 °F - 42.8 °F 59% 29.89 in 10.0 mi WSW 16.1 mph 25.3 mph N/A   Overcast
3:56 PM 57.2 °F - 42.8 °F 59% 29.90 in 10.0 mi WSW 19.6 mph 25.3 mph N/A   Overcast
4:15 PM 59.0 °F - 44.6 °F 59% 29.90 in 10.0 mi WSW 18.4 mph 25.3 mph N/A   Overcast
4:16 PM 59.0 °F - 44.6 °F 59% 29.90 in 10.0 mi WSW 18.4 mph 25.3 mph N/A   Overcast
4:35 PM 59.0 °F - 44.6 °F 59% 29.89 in 10.0 mi SW 18.4 mph 23.0 mph N/A   Mostly Cloudy
4:40 PM 59.0 °F - 42.8 °F 55% 29.90 in 10.0 mi WSW 15.0 mph 25.3 mph N/A   Mostly Cloudy
4:57 PM 57.2 °F - 42.8 °F 59% 29.90 in 10.0 mi WSW 16.1 mph 28.8 mph N/A   Overcast
5:15 PM 57.2 °F - 42.8 °F 59% 29.90 in 10.0 mi WSW 15.0 mph 24.2 mph N/A   Overcast
5:35 PM 57.2 °F - 42.8 °F 59% 29.90 in 10.0 mi WSW 10.4 mph 20.7 mph N/A   Overcast
5:36 PM 57.2 °F - 42.8 °F 59% 29.90 in 10.0 mi WSW 8.1 mph 19.6 mph N/A   Overcast
5:55 PM 55.4 °F - 42.8 °F 63% 29.91 in 10.0 mi West 4.6 mph - N/A   Overcast
5:56 PM 55.4 °F - 42.8 °F 63% 29.91 in 10.0 mi West 9.2 mph - N/A   Overcast
6:19 PM 55.4 °F - 42.8 °F 63% 29.91 in 10.0 mi WSW 10.4 mph - N/A   Mostly Cloudy
6:36 PM 53.6 °F - 44.6 °F 72% 29.91 in 10.0 mi Calm Calm - N/A   Mostly Cloudy
6:56 PM 53.6 °F - 42.8 °F 67% 29.91 in 10.0 mi Calm Calm - N/A   Mostly Cloudy
7:15 PM 51.8 °F - 44.6 °F 76% 29.91 in 10.0 mi Calm Calm - N/A   Mostly Cloudy
7:35 PM 51.8 °F - 44.6 °F 76% 29.92 in 10.0 mi Calm Calm - N/A   Scattered Clouds
7:39 PM 50.0 °F - 42.8 °F 76% 29.92 in 10.0 mi Calm Calm - N/A   Scattered Clouds
7:58 PM 50.0 °F - 42.8 °F 76% 29.93 in 10.0 mi Calm Calm - N/A   Clear
8:15 PM 51.8 °F - 42.8 °F 71% 29.95 in 10.0 mi NW 5.8 mph - N/A   Mostly Cloudy
8:35 PM 51.8 °F - 42.8 °F 71% 29.95 in 10.0 mi West 8.1 mph - N/A   Mostly Cloudy
8:55 PM 50.0 °F - 42.8 °F 76% 29.96 in 10.0 mi Calm Calm - N/A   Clear
9:19 PM 50.0 °F - 41.0 °F 71% 29.96 in 10.0 mi Calm Calm - N/A   Clear
9:36 PM 48.2 °F - 41.0 °F 76% 29.97 in 10.0 mi Calm Calm - N/A   Clear
9:55 PM 46.4 °F - 41.0 °F 81% 29.97 in 10.0 mi Calm Calm - N/A   Clear
9:56 PM 46.4 °F - 41.0 °F 81% 29.97 in 10.0 mi Calm Calm - N/A   Clear
10:15 PM 46.4 °F - 41.0 °F 81% 29.97 in 10.0 mi Calm Calm - N/A   Clear
10:16 PM 46.4 °F - 41.0 °F 81% 29.97 in 10.0 mi Calm Calm - N/A   Clear
10:35 PM 44.6 °F - 41.0 °F 87% 29.98 in 10.0 mi Calm Calm - N/A   Clear
10:39 PM 44.6 °F - 41.0 °F 87% 29.98 in 10.0 mi Calm Calm - N/A   Clear
10:57 PM 44.6 °F - 41.0 °F 87% 29.98 in 10.0 mi Calm Calm - N/A   Clear
11:16 PM 42.8 °F - 41.0 °F 93% 29.99 in 10.0 mi Calm Calm - N/A   Clear
11:35 PM 42.8 °F - 41.0 °F 93% 29.99 in 10.0 mi Calm Calm - N/A   Mostly Cloudy
11:36 PM 42.8 °F - 41.0 °F 93% 29.99 in 10.0 mi Calm Calm - N/A   Mostly Cloudy
11:55 PM 44.6 °F - 41.0 °F 87% 29.99 in 10.0 mi Calm Calm - N/A   Overcast
11:56 PM 44.6 °F - 41.0 °F 87% 29.99 in 10.0 mi Calm Calm - N/A   Overcast